Change the Weather History Date:

Saturday, January 19, 2013

  Actual Average Record
Temperature  
Mean Temperature 20 °F -  
Max Temperature 35 °F 21 °F 48 °F (1947)
Min Temperature 5 °F -3 °F -30 °F (1937)
Degree Days  
Heating Degree Days 45    
Moisture  
Dew Point 19 °F    
Average Humidity 83    
Maximum Humidity 93    
Minimum Humidity 66    
Precipitation  
Precipitation 0.00 in - - ()
Sea Level Pressure  
Sea Level Pressure 29.63 in    
Wind  
Wind Speed 7 mph (West)    
Max Wind Speed 25 mph    
Max Gust Speed 36 mph    
Visibility 5 miles    
Events Snow    
Averages and records for this station are not official NWS values.
T = Trace of Precipitation, MM = Missing Value Source: NWS Daily Summary

Daily Weather History Graph

Daily Weather History Graph

Search for Another Location

Airport or City:

Trip Planner

Search our weather history database for the weather conditions in past years. The results will help you decide how hot, cold, wet, or windy it might be!

Date:

Astronomy

Jan. 19, 2013 Rise Set
Actual Time 7:33 AM CST 4:46 PM CST
Civil Twilight 7:00 AM CST 5:19 PM CST
Nautical Twilight 6:23 AM CST 5:56 PM CST
Astronomical Twilight 5:48 AM CST 6:31 PM CST
Moon 11:16 AM CST (1/19) 1:03 AM CST (1/19)
Length of Visible Light 10h 18m
Length of Day
9h 12m
First Quarter, 57% of the Moon is Illuminated
Jan 19
First Quarter
Jan 26
Full
Feb 3
Last Quarter
Feb 10
New
Feb 17
First Quarter

Hourly Weather History & Observations

Time (CST) Temp. Windchill Dew Point Humidity Pressure Visibility Wind Dir Wind Speed Gust Speed Precip Events Conditions
12:15 AM 23.0 °F 18.4 °F 21.2 °F 93% 29.70 in 7.0 mi NW 3.5 mph - N/A   Overcast
12:35 AM 23.0 °F 17.0 °F 21.2 °F 93% 29.70 in 7.0 mi NNW 4.6 mph - N/A   Overcast
12:55 AM 23.0 °F - 21.2 °F 93% 29.70 in 7.0 mi Calm Calm - N/A   Overcast
1:15 AM 23.0 °F - 21.2 °F 93% 29.72 in 7.0 mi Calm Calm - N/A   Overcast
1:35 AM 23.0 °F 18.4 °F 21.2 °F 93% 29.72 in 7.0 mi NW 3.5 mph - N/A   Overcast
1:55 AM 23.0 °F - 21.2 °F 93% 29.72 in 7.0 mi Calm Calm - N/A   Overcast
2:15 AM 23.0 °F - 21.2 °F 93% 29.73 in 7.0 mi Calm Calm - N/A   Overcast
2:35 AM 23.0 °F - 21.2 °F 93% 29.73 in 7.0 mi Calm Calm - N/A   Overcast
2:55 AM 23.0 °F 18.4 °F 21.2 °F 93% 29.73 in 5.0 mi West 3.5 mph - N/A   Overcast
3:15 AM 23.0 °F 18.4 °F 21.2 °F 93% 29.74 in 5.0 mi WSW 3.5 mph - N/A   Overcast
3:35 AM 23.0 °F - 21.2 °F 93% 29.72 in 4.0 mi Calm Calm - N/A   Overcast
3:55 AM 23.0 °F - 21.2 °F 93% 29.71 in 4.0 mi Calm Calm - N/A   Overcast
4:15 AM 23.0 °F - 21.2 °F 93% 29.70 in 4.0 mi Calm Calm - N/A   Overcast
4:35 AM 23.0 °F - 21.2 °F 93% 29.69 in 3.0 mi Calm Calm - N/A Snow Light Snow
4:55 AM 23.0 °F - 21.2 °F 93% 29.69 in 2.5 mi Calm Calm - N/A   Overcast
5:15 AM 23.0 °F - 21.2 °F 93% 29.69 in 1.5 mi Calm Calm - N/A   Overcast
5:35 AM 23.0 °F 17.0 °F 21.2 °F 93% 29.67 in 0.8 mi SSE 4.6 mph - N/A   Overcast
5:55 AM 23.0 °F 18.4 °F 21.2 °F 93% 29.67 in 0.8 mi SE 3.5 mph - N/A   Overcast
7:15 AM 24.8 °F 17.9 °F 23.0 °F 93% 29.63 in 3.0 mi South 5.8 mph - N/A   Overcast
7:55 AM 24.8 °F 17.9 °F 23.0 °F 93% 29.61 in 4.0 mi South 5.8 mph - N/A   Overcast
8:35 AM 26.6 °F 21.2 °F 23.0 °F 86% 29.64 in 4.0 mi West 4.6 mph - N/A   Overcast
9:35 AM 28.4 °F 23.3 °F 26.6 °F 93% 29.64 in 4.0 mi SW 4.6 mph - N/A   Overcast
9:55 AM 28.4 °F 23.3 °F 26.6 °F 93% 29.62 in 4.0 mi SW 4.6 mph - N/A   Overcast
10:15 AM 30.2 °F 24.3 °F 26.6 °F 86% 29.61 in 5.0 mi SW 5.8 mph - N/A   Mostly Cloudy
10:35 AM 32.0 °F 24.2 °F 28.4 °F 87% 29.60 in 7.0 mi SSW 9.2 mph - N/A   Scattered Clouds
10:55 AM 32.0 °F 24.2 °F 28.4 °F 87% 29.58 in 7.0 mi SSW 9.2 mph - N/A   Scattered Clouds
11:15 AM 32.0 °F 26.4 °F 28.4 °F 87% 29.57 in 10.0 mi SW 5.8 mph - N/A   Scattered Clouds
11:35 AM 33.8 °F 27.0 °F 28.4 °F 81% 29.54 in 10.0 mi SW 8.1 mph - N/A   Mostly Cloudy
11:55 AM 35.6 °F 28.6 °F 32.0 °F 87% 29.53 in 10.0 mi WSW 9.2 mph - N/A   Overcast
12:15 PM 35.6 °F 28.0 °F 30.2 °F 81% 29.52 in 10.0 mi West 10.4 mph 18.4 mph N/A   Mostly Cloudy
12:35 PM 35.6 °F 28.0 °F 30.2 °F 81% 29.51 in 10.0 mi West 10.4 mph 17.3 mph N/A   Mostly Cloudy
12:55 PM 35.6 °F 28.6 °F 32.0 °F 87% 29.49 in 10.0 mi WSW 9.2 mph - N/A   Mostly Cloudy
1:35 PM 35.6 °F 25.9 °F 30.2 °F 81% 29.48 in 10.0 mi West 16.1 mph - N/A   Scattered Clouds
1:55 PM 35.6 °F 27.1 °F 30.2 °F 81% 29.48 in 10.0 mi West 12.7 mph 21.9 mph N/A   Scattered Clouds
2:15 PM 35.6 °F 26.2 °F 30.2 °F 81% 29.48 in 7.0 mi West 15.0 mph 23.0 mph N/A Snow Light Snow
2:35 PM 35.6 °F 28.0 °F 32.0 °F 87% 29.47 in 10.0 mi West 10.4 mph 17.3 mph N/A Snow Light Snow
2:55 PM 33.8 °F 24.3 °F 28.4 °F 81% 29.50 in 10.0 mi WNW 13.8 mph 31.1 mph N/A   Overcast
3:15 PM 32.0 °F 22.1 °F 26.6 °F 80% 29.50 in 2.0 mi West 13.8 mph 24.2 mph N/A Snow Light Snow
3:35 PM 32.0 °F 21.6 °F 26.6 °F 80% 29.50 in 10.0 mi West 15.0 mph 23.0 mph N/A   Overcast
3:55 PM 32.0 °F 23.0 °F 26.6 °F 80% 29.49 in 10.0 mi West 11.5 mph - N/A   Overcast
4:15 PM 32.0 °F 23.6 °F 26.6 °F 80% 29.49 in 10.0 mi West 10.4 mph 16.1 mph N/A   Overcast
4:35 PM 32.0 °F 24.2 °F 23.0 °F 69% 29.47 in 10.0 mi West 9.2 mph 17.3 mph N/A   Mostly Cloudy
4:55 PM 32.0 °F 22.5 °F 23.0 °F 69% 29.48 in 10.0 mi WNW 12.7 mph 23.0 mph N/A   Mostly Cloudy
5:15 PM 32.0 °F 20.5 °F 23.0 °F 69% 29.49 in 10.0 mi WNW 18.4 mph 25.3 mph N/A Snow Light Snow
5:35 PM 28.4 °F 18.0 °F 23.0 °F 80% 29.50 in 0.5 mi NNW 12.7 mph 29.9 mph N/A Snow Snow
5:55 PM 23.0 °F 6.6 °F 19.4 °F 86% 29.54 in 1.0 mi NW 25.3 mph 35.7 mph N/A Snow Light Snow
6:15 PM 23.0 °F 8.3 °F 17.6 °F 80% 29.57 in 2.0 mi NW 19.6 mph 31.1 mph N/A Snow Light Snow
6:35 PM 19.4 °F 4.1 °F 14.0 °F 80% 29.59 in 1.0 mi NW 18.4 mph 29.9 mph N/A Snow Snow
6:55 PM 17.6 °F 2.2 °F 10.4 °F 73% 29.61 in 2.0 mi NW 17.3 mph 33.4 mph N/A Snow Light Snow
7:15 PM 17.6 °F 1.7 °F 8.6 °F 68% 29.62 in 3.0 mi NW 18.4 mph 29.9 mph N/A Snow Light Snow
7:35 PM 14.0 °F -2.5 °F 6.8 °F 73% 29.64 in 1.8 mi NW 17.3 mph 34.5 mph N/A Snow Light Snow
7:55 PM 14.0 °F -2.0 °F 6.8 °F 73% 29.66 in 1.5 mi NW 16.1 mph 28.8 mph N/A Snow Light Snow
8:15 PM 12.2 °F -5.8 °F 3.2 °F 67% 29.68 in 2.5 mi NW 19.6 mph 32.2 mph N/A Snow Light Snow
8:35 PM 12.2 °F -6.7 °F 3.2 °F 67% 29.69 in 4.0 mi NW 21.9 mph 29.9 mph N/A Snow Light Snow
8:55 PM 12.2 °F -6.7 °F 5.0 °F 73% 29.71 in 1.0 mi NW 21.9 mph 29.9 mph N/A Snow Light Snow
9:15 PM 10.4 °F -6.6 °F 5.0 °F 79% 29.73 in 1.2 mi NW 16.1 mph 20.7 mph N/A Snow Light Snow
9:35 PM 10.4 °F -5.4 °F 3.2 °F 73% 29.74 in 1.2 mi NW 13.8 mph 24.2 mph N/A Snow Light Snow
9:55 PM 6.8 °F -11.8 °F -0.4 °F 72% 29.76 in 4.0 mi NW 17.3 mph 27.6 mph N/A   Haze
10:15 PM 5.0 °F -13.0 °F -0.4 °F 78% 29.79 in 2.0 mi NW 15.0 mph 23.0 mph N/A Snow Light Snow
10:35 PM 5.0 °F -14.7 °F -4.0 °F 66% 29.80 in 3.0 mi NW 18.4 mph 29.9 mph N/A   Haze
10:55 PM 5.0 °F -14.2 °F -4.0 °F 66% 29.80 in 4.0 mi NW 17.3 mph 24.2 mph N/A   Haze
11:15 PM 5.0 °F -11.6 °F -2.2 °F 72% 29.82 in 3.0 mi WNW 12.7 mph 24.2 mph N/A   Haze
11:35 PM 5.0 °F -13.0 °F -2.2 °F 72% 29.83 in 4.0 mi NW 15.0 mph 24.2 mph N/A   Haze
11:55 PM 5.0 °F -13.0 °F -2.2 °F 72% 29.84 in 5.0 mi NW 15.0 mph 20.7 mph N/A   Haze